Temp
11 10 10 11 12 13 13 13 12 15 16 14 14 14 14 16 16 16 17 17 17 17 18 19 19 19 19 19 20 20 19 19 19 17 16 16 16 15 16 15 15 14 13 14
10 8 12 14 14 13 13 12 12 14 15 14 12 13 14 15 15 16 16 17 17 17 17 18 18 18 18 18 19 19 19 18 18 18 17 16 16 16 16 15 14 13 13 13
10 11 12 12 12 11 12 11 12 12 13 12 12 12 13 16 15 16 16 16 17 17 17 17 17 18 18 18 18 18 18 18 17 18 16 15 15 16 15 14 14 13 12 13
10 12 11 11 11 11 11 12 12 12 11 9 10 8 12 14 15 16 17 18 17 17 17 17 17 17 18 18 17 17 17 18 18 17 16 16 16 16 15 15 14 13 12 12
9 11 10 10 11 12 11 11 11 11 9 7 10 7 10 16 15 17 16 18 18 18 18 17 17 17 17 17 17 17 17 17 17 17 16 15 16 16 17 15 14 12 11 11
11 11 11 11 11 11 10 10 10 9 8 7 8 9 10 15 16 15 16 19 19 18 18 17 17 17 16 16 17 16 17 17 17 16 15 15 16 16 16 14 12 12 11 10
9 9 10 11 10 10 10 9 6 7 6 6 13 10 11 15 16 16 16 18 18 17 17 17 16 16 16 16 16 16 16 16 16 15 14 14 15 15 15 15 13 11 11 9
8 8 9 10 10 9 8 8 6 8 7 9 11 10 12 15 16 17 17 17 17 17 16 16 15 14 14 14 15 15 16 15 15 14 13 13 12 14 14 14 12 11 10 10
8 9 11 10 10 10 9 7 9 7 8 5 9 12 14 16 15 15 16 16 16 16 16 15 14 13 13 14 15 15 14 14 14 13 13 12 11 12 12 12 10 10 10 8
10 8 10 10 10 10 9 10 6 4 3 6 10 11 12 15 14 14 14 15 16 16 15 14 13 12 13 14 15 14 14 13 13 12 11 11 11 11 11 10 10 9 8 8
10 9 8 8 7 7 8 8 8 7 6 5 6 10 14 13 13 12 12 14 14 14 14 13 12 13 12 14 14 14 13 12 12 11 11 11 11 10 10 10 9 8 7 7
10 8 6 7 9 9 10 8 8 4 5 5 4 8 13 12 14 14 12 14 14 14 13 13 12 12 12 13 13 13 12 12 11 10 10 10 10 9 9 9 7 6 7 7
9 7 6 8 8 10 8 9 9 8 6 6 6 8 14 13 12 13 13 13 13 13 13 11 10 10 11 12 12 12 11 10 9 9 9 9 8 8 7 6 6 7 7 7
10 8 5 6 8 8 5 7 8 7 6 8 8 8 10 11 11 10 10 11 12 12 12 9 9 9 9 11 10 9 9 8 8 8 8 7 6 6 6 6 6 6 6 6
8 6 7 7 8 9 8 8 7 7 6 6 8 9 10 9 9 9 9 8 8 10 10 8 8 9 9 8 7 7 8 7 7 7 5 4 5 5 5 5 5 5 5 5
8 5 6 5 8 8 7 8 9 9 9 7 8 8 9 10 11 10 9 8 7 7 7 7 7 8 7 6 6 6 6 5 5 4 3 4 5 5 5 5 5 5 4 5
7 6 5 7 9 10 9 10 10 9 9 8 8 9 10 9 11 7 6 6 7 7 7 7 6 6 5 5 5 5 4 3 3 3 3 4 4 5 5 5 5 4 4 4
7 6 6 5 8 9 12 12 11 9 9 9 9 10 11 10 7 5 5 6 6 7 6 5 4 5 5 4 4 3 2 2 2 1 2 3 3 4 4 4 4 4 4 4
8 7 7 7 9 10 12 12 11 10 9 9 8 9 10 9 8 5 5 5 5 4 3 3 3 2 1 1 1 1 0 0 0 1 2 3 3 3 3 3 3 3 3 3
7 6 6 6 7 8 12 11 11 9 8 10 7 8 9 8 8 5 4 4 3 3 2 2 0 -0 -0 -1 -1 -1 -1 -0 1 1 1 2 2 3 3 3 3 2 2 2
6 6 6 6 7 8 12 10 9 10 10 10 7 7 7 6 5 4 3 2 1 0 -0 -0 -0 -0 -1 -1 -1 1 1 2 2 3 3 2 1 2 2 2 1 1 1 1
7 6 6 6 6 6 13 12 11 11 11 10 8 7 6 5 4 3 3 2 1 0 -0 -0 -0 -1 -1 -0 1 1 1 2 2 2 2 2 2 2 2 1 1 1 1 0
9 8 8 7 8 11 13 12 12 11 9 9 8 7 6 5 3 3 3 3 3 2 2 1 0 0 -0 1 3 3 1 1 1 2 2 2 1 1 1 1 1 0 -0 -1
11 11 9 9 12 11 12 11 9 9 7 7 7 6 6 6 4 2 2 3 2 2 2 2 2 2 2 2 2 2 1 1 2 1 1 1 1 1 0 0 -0 -1 -1 -2
10 11 10 10 10 12 10 9 8 7 6 5 5 5 6 6 3 4 3 2 2 2 2 2 2 2 2 2 2 2 2 2 2 2 1 1 0 0 0 -0 -1 -1 -2 -2
10 9 9 11 11 11 8 8 7 6 5 5 5 5 5 6 5 4 2 2 2 1 2 3 3 4 3 3 3 2 2 2 2 1 1 0 0 -0 -0 -1 -1 -2 -2 -3
Height
1463 1465 1466 1462 1464 1459 1459 1461 1464 1452 1449 1454 1454 1450 1446 1443 1441 1438 1438 1439 1439 1438 1440 1442 1444 1446 1450 1454 1457 1459 1461 1464 1469 1473 1475 1476 1479 1483 1488 1492 1495 1497 1498 1501
1466 1467 1459 1457 1456 1458 1459 1464 1465 1458 1453 1456 1454 1442 1438 1432 1427 1428 1428 1428 1429 1432 1435 1436 1438 1440 1442 1444 1448 1451 1455 1455 1459 1464 1469 1471 1474 1479 1484 1488 1490 1492 1494 1497
1462 1459 1456 1459 1458 1463 1463 1467 1466 1465 1459 1457 1453 1434 1422 1413 1412 1415 1416 1419 1423 1423 1425 1428 1430 1432 1435 1437 1440 1443 1447 1452 1454 1458 1464 1465 1469 1473 1476 1480 1484 1486 1488 1491
1459 1456 1458 1461 1460 1462 1466 1460 1461 1464 1469 1472 1462 1462 1425 1415 1409 1408 1407 1409 1411 1414 1417 1420 1423 1426 1429 1431 1435 1438 1442 1445 1449 1452 1455 1457 1459 1463 1467 1471 1475 1479 1484 1489
1458 1455 1460 1461 1459 1459 1465 1465 1467 1468 1473 1477 1462 1475 1424 1407 1408 1403 1401 1402 1405 1408 1410 1414 1417 1420 1422 1425 1427 1430 1435 1438 1443 1444 1448 1449 1453 1457 1461 1465 1470 1476 1480 1485
1453 1453 1457 1458 1458 1459 1465 1468 1470 1472 1475 1477 1458 1458 1425 1409 1403 1402 1399 1397 1402 1406 1409 1412 1414 1415 1417 1419 1421 1424 1427 1431 1436 1438 1441 1442 1444 1450 1455 1459 1464 1470 1475 1480
1455 1457 1457 1457 1458 1463 1467 1470 1483 1481 1483 1477 1430 1448 1422 1402 1400 1400 1403 1402 1404 1406 1409 1410 1412 1412 1413 1414 1415 1416 1421 1424 1428 1433 1436 1439 1439 1444 1450 1453 1458 1463 1470 1475
1457 1459 1454 1454 1458 1464 1468 1471 1478 1470 1468 1454 1440 1438 1417 1398 1395 1398 1398 1399 1401 1403 1406 1407 1408 1408 1408 1409 1409 1412 1414 1417 1422 1425 1431 1436 1435 1442 1444 1449 1455 1461 1467 1473
1448 1449 1445 1452 1456 1460 1466 1472 1465 1470 1463 1478 1445 1418 1405 1394 1394 1393 1395 1397 1400 1400 1401 1403 1403 1404 1405 1403 1404 1406 1410 1413 1416 1420 1427 1429 1433 1437 1440 1444 1452 1458 1464 1469
1440 1452 1450 1454 1457 1459 1460 1459 1475 1482 1495 1473 1433 1423 1412 1398 1399 1397 1399 1399 1399 1398 1399 1400 1401 1403 1401 1398 1397 1401 1404 1410 1413 1419 1422 1424 1430 1434 1438 1442 1448 1455 1462 1467
1442 1447 1458 1458 1460 1458 1460 1461 1463 1464 1470 1477 1459 1423 1397 1400 1399 1401 1399 1399 1398 1398 1397 1397 1396 1399 1397 1394 1395 1397 1401 1405 1410 1414 1415 1422 1426 1431 1436 1441 1448 1454 1461 1467
1443 1450 1457 1456 1450 1451 1451 1454 1459 1478 1474 1465 1465 1424 1396 1395 1397 1396 1397 1396 1397 1394 1393 1393 1395 1396 1395 1392 1392 1394 1398 1402 1405 1405 1414 1420 1424 1428 1433 1440 1448 1454 1461 1465
1443 1453 1455 1448 1451 1446 1451 1449 1450 1455 1460 1457 1457 1422 1393 1389 1396 1397 1395 1390 1389 1390 1390 1388 1391 1394 1392 1389 1389 1391 1395 1397 1400 1406 1413 1419 1423 1427 1434 1441 1448 1455 1459 1465
1441 1445 1454 1452 1440 1447 1456 1447 1447 1454 1457 1437 1429 1412 1403 1399 1395 1393 1392 1390 1386 1384 1385 1387 1389 1391 1390 1387 1387 1390 1393 1397 1403 1408 1413 1418 1422 1428 1435 1442 1449 1454 1460 1464
1442 1450 1446 1442 1438 1438 1439 1439 1441 1445 1439 1442 1415 1414 1401 1402 1394 1390 1388 1385 1383 1384 1379 1386 1387 1387 1388 1388 1389 1393 1394 1400 1405 1409 1414 1419 1423 1429 1436 1443 1449 1454 1459 1464
1443 1449 1444 1447 1431 1430 1432 1428 1427 1425 1424 1425 1418 1405 1401 1392 1388 1386 1382 1380 1383 1383 1380 1381 1384 1385 1387 1389 1390 1392 1396 1402 1407 1410 1414 1419 1425 1431 1437 1443 1449 1456 1459 1464
1443 1446 1447 1435 1425 1423 1423 1411 1411 1414 1415 1416 1410 1400 1395 1391 1386 1385 1382 1378 1375 1374 1377 1379 1381 1383 1385 1389 1392 1396 1400 1405 1408 1412 1416 1421 1427 1433 1439 1445 1450 1456 1460 1462
1438 1443 1443 1444 1429 1426 1405 1399 1404 1408 1407 1408 1406 1397 1390 1385 1387 1385 1381 1376 1372 1369 1371 1375 1379 1383 1388 1391 1395 1399 1404 1407 1410 1414 1418 1424 1430 1436 1442 1448 1453 1457 1460 1462
1435 1439 1438 1435 1426 1413 1402 1402 1405 1406 1406 1406 1404 1397 1391 1386 1383 1386 1385 1381 1379 1377 1379 1381 1384 1388 1392 1395 1398 1403 1407 1409 1415 1420 1423 1429 1435 1441 1447 1452 1454 1458 1461 1462
1435 1439 1443 1441 1437 1425 1401 1401 1403 1404 1407 1401 1401 1396 1392 1387 1383 1390 1389 1386 1384 1383 1383 1385 1390 1394 1398 1403 1406 1409 1411 1416 1421 1425 1429 1434 1440 1444 1449 1453 1457 1459 1460 1462
1434 1438 1437 1440 1439 1421 1399 1400 1402 1406 1406 1397 1397 1396 1395 1393 1394 1394 1391 1389 1388 1387 1388 1390 1393 1398 1402 1406 1410 1415 1419 1425 1427 1429 1432 1437 1442 1450 1452 1454 1457 1459 1460 1461
1427 1433 1434 1437 1437 1430 1396 1398 1402 1399 1395 1395 1395 1396 1396 1396 1397 1396 1396 1394 1394 1394 1395 1396 1393 1402 1400 1408 1412 1416 1418 1426 1429 1432 1439 1445 1449 1450 1452 1456 1458 1458 1459 1459
1416 1414 1417 1419 1414 1397 1395 1394 1394 1393 1394 1394 1394 1395 1394 1395 1398 1398 1399 1400 1401 1402 1405 1408 1407 1410 1414 1417 1421 1424 1432 1436 1438 1441 1444 1447 1449 1452 1455 1456 1457 1458 1457 1457
1403 1403 1406 1406 1394 1395 1395 1394 1393 1393 1392 1392 1392 1393 1392 1394 1397 1399 1399 1402 1403 1406 1408 1410 1413 1415 1419 1425 1429 1432 1435 1438 1440 1442 1445 1448 1451 1453 1454 1455 1456 1456 1456 1456
1403 1399 1400 1399 1394 1393 1393 1394 1393 1392 1391 1391 1389 1391 1393 1393 1397 1398 1400 1404 1406 1408 1410 1413 1416 1418 1422 1426 1430 1434 1437 1440 1443 1445 1447 1450 1452 1453 1454 1455 1456 1456 1455 1454
1397 1398 1400 1395 1391 1392 1395 1394 1393 1392 1391 1390 1390 1391 1393 1394 1395 1399 1402 1405 1408 1410 1412 1416 1419 1422 1425 1430 1433 1436 1440 1443 1445 1447 1449 1451 1453 1453 1455 1456 1456 1455 1454 1452
Wind_Speed
13 5 9 12 12 14 11 6 11 5 7 8 10 14 14 17 23 24 26 28 33 33 29 25 28 29 34 37 34 34 35 36 33 35 33 31 22 27 27 24 26 29 29 27
3 8 10 8 5 7 9 7 10 9 8 7 10 19 17 21 20 29 30 31 32 32 30 31 29 28 33 33 37 37 32 29 34 34 36 35 29 28 29 28 30 30 32 30
6 1 11 11 4 4 6 6 8 10 11 10 12 16 11 10 23 34 35 36 31 30 32 33 33 33 34 36 38 35 34 37 31 32 32 33 32 32 34 34 34 35 38 32
7 6 5 6 9 6 6 2 5 6 6 4 11 7 6 9 10 8 16 21 27 32 32 31 31 31 35 37 36 37 35 39 35 34 37 39 39 40 42 40 42 43 37 32
5 3 6 5 6 5 2 5 4 5 5 7 4 3 7 4 7 6 8 24 21 18 22 21 23 25 29 26 28 38 38 35 40 39 40 43 42 43 40 41 43 40 33 31
5 3 3 5 2 3 6 2 4 4 2 5 10 9 5 3 4 6 10 13 12 12 12 12 15 17 18 22 29 24 37 37 38 38 41 44 44 42 41 40 41 39 36 33
5 7 3 4 7 4 3 3 1 2 2 6 3 9 11 15 12 15 8 2 7 6 6 8 12 13 19 24 26 31 26 39 36 35 40 40 44 40 37 37 39 37 37 34
7 4 14 10 8 5 9 4 2 4 2 4 7 7 6 12 10 5 7 8 11 12 9 10 11 14 21 22 24 29 33 34 36 36 38 38 38 34 34 30 32 34 35 33
7 2 9 12 6 8 5 7 1 4 4 2 5 6 9 14 10 9 4 12 14 21 18 10 10 14 23 22 27 27 28 32 35 35 36 36 32 34 30 29 32 37 36 32
5 3 2 7 7 9 7 6 3 1 2 5 5 7 7 4 7 7 6 6 10 11 11 8 11 15 22 20 23 23 28 32 32 34 35 36 36 33 27 29 37 37 33 32
4 2 2 5 7 9 7 5 2 1 3 3 4 5 4 5 7 7 9 19 20 10 8 12 13 18 19 16 17 21 29 32 31 34 39 39 38 30 28 32 35 33 32 27
6 3 3 8 8 12 11 6 8 3 4 4 2 7 16 9 2 2 7 17 26 15 10 11 13 17 15 13 14 24 28 29 37 39 39 38 32 30 32 32 33 32 29 25
7 3 2 3 2 6 4 6 9 10 4 12 6 6 3 14 20 27 27 21 20 17 16 5 5 10 13 12 15 22 28 36 37 37 36 32 30 32 32 32 32 30 27 23
13 4 4 2 4 2 3 6 7 6 5 13 19 25 25 22 24 23 28 28 26 20 10 4 3 5 9 13 17 30 34 35 36 35 31 31 33 33 34 34 32 27 24 20
4 3 5 10 13 9 10 10 13 15 20 12 23 23 26 23 22 18 14 19 15 28 9 6 3 8 11 15 25 29 32 31 31 29 32 35 36 37 36 33 29 25 23 18
3 2 4 5 12 12 12 16 16 19 19 16 19 24 16 25 11 12 12 14 15 17 3 4 5 12 18 24 28 29 29 28 29 34 38 39 39 37 33 29 26 23 18 14
6 3 1 3 7 9 8 9 9 4 7 8 9 17 14 16 13 8 11 15 19 21 15 9 15 22 23 26 27 27 29 32 35 39 40 40 37 34 31 27 23 19 14 10
5 5 2 4 8 4 2 6 6 7 8 8 13 14 11 8 6 16 17 14 8 3 13 16 21 22 20 22 24 29 33 35 38 39 38 35 33 30 27 24 20 16 11 6
5 2 2 2 5 9 3 4 1 1 3 4 8 12 13 4 5 11 19 11 10 14 16 16 16 16 19 24 27 33 34 38 37 36 34 31 27 26 23 19 15 11 6 3
6 5 0 3 3 3 2 4 4 7 2 4 0 8 11 11 4 3 13 8 10 11 13 16 17 22 25 28 31 33 33 34 34 32 30 26 23 19 17 15 10 6 3 1
4 2 6 4 3 6 7 7 8 1 4 4 2 7 11 4 5 8 11 12 10 14 17 19 22 27 30 32 29 31 30 28 27 26 22 20 19 19 14 7 5 4 2 2
6 6 3 3 3 7 1 4 0 2 3 7 3 2 7 8 10 13 18 19 23 24 21 20 25 27 29 31 31 28 27 25 23 24 25 24 18 9 7 7 6 3 2 5
5 6 5 6 6 8 5 8 4 5 5 6 3 3 7 9 11 11 19 20 21 26 25 24 28 30 26 24 24 27 27 26 27 23 17 14 12 11 9 6 3 2 5 7
4 11 3 4 5 9 5 8 6 6 5 7 6 7 10 12 13 13 18 19 21 23 26 28 30 29 28 24 25 28 28 24 21 19 16 13 10 8 6 4 3 6 8 9
1 1 4 6 9 4 7 7 4 5 4 4 1 10 11 13 15 15 18 18 18 21 21 21 25 28 27 25 27 26 22 18 16 15 12 10 7 6 4 4 6 8 9 11
6 5 4 3 4 1 2 3 3 2 1 2 5 10 11 13 15 18 19 20 22 23 20 20 24 26 27 26 24 21 17 13 10 10 9 7 5 4 4 6 7 9 11 13
Wind_Direction
187 207 200 197 215 250 291 297 312 328 339 322 276 273 267 264 257 254 247 245 248 251 248 247 239 234 234 232 230 223 223 227 229 209 209 219 215 204 215 215 216 213 214 216
149 241 233 243 235 254 255 283 284 287 278 308 292 276 273 262 251 246 244 245 243 245 246 249 246 238 238 236 231 228 221 220 222 221 210 215 206 205 212 214 212 211 216 219
186 226 221 253 226 236 251 257 281 300 325 307 290 282 243 260 238 241 243 247 249 246 242 243 246 243 241 236 237 233 230 224 221 223 209 204 203 206 209 206 213 210 219 220
226 192 143 212 230 205 252 350 300 319 319 256 26 289 268 282 276 232 232 236 238 241 245 244 243 245 242 241 238 233 235 230 224 224 210 207 202 203 212 214 214 220 212 214
214 203 172 221 202 189 189 45 356 318 325 342 234 227 273 297 268 254 226 216 226 231 232 235 242 247 253 248 243 235 231 230 222 218 210 209 206 210 217 214 211 216 214 214
224 114 243 195 166 239 70 165 239 268 241 253 209 191 279 218 146 40 348 184 214 231 245 250 255 252 254 252 251 245 229 226 220 215 207 210 212 213 213 214 212 215 219 204
240 213 164 278 175 165 159 203 231 215 209 239 248 200 250 294 290 302 255 243 181 194 248 269 293 286 272 263 248 242 236 224 213 211 206 211 220 215 218 219 216 211 209 196
197 205 192 179 216 159 191 193 213 252 260 323 323 240 254 231 263 218 241 227 249 279 277 289 275 294 298 290 251 241 229 218 206 204 206 211 218 215 215 214 210 206 203 199
175 225 158 155 186 182 165 211 217 311 260 260 235 297 291 261 262 248 220 206 249 247 253 255 280 299 310 274 248 233 231 210 201 200 207 213 207 214 209 205 199 200 198 192
10 105 216 151 181 213 214 170 92 45 250 267 258 258 246 55 21 16 2 316 292 250 229 271 286 298 309 285 241 230 220 204 201 201 197 201 203 209 205 194 195 193 189 190
177 194 126 99 212 197 204 228 233 48 209 236 302 248 97 67 4 14 350 338 314 284 288 293 292 301 304 296 226 222 209 195 193 185 198 195 202 201 192 190 190 189 186 186
178 125 190 210 246 210 203 205 195 157 244 245 291 266 262 274 31 106 307 306 296 272 255 267 279 294 286 269 240 208 194 195 184 188 191 196 196 189 184 185 183 178 176 178
154 174 193 152 360 204 207 231 203 226 323 244 270 263 223 307 315 303 300 300 267 269 278 209 273 291 275 246 217 200 181 171 178 183 193 190 183 177 175 172 171 173 175 175
160 156 217 218 80 116 210 235 230 203 248 253 243 271 284 292 305 306 299 288 290 284 290 194 259 261 259 222 176 160 161 172 179 188 186 176 169 168 166 167 169 172 171 172
140 220 239 262 270 270 252 238 222 222 239 246 270 278 286 294 292 300 328 1 335 315 195 187 252 216 213 158 153 160 165 175 181 178 170 164 162 162 164 167 166 166 166 164
137 259 358 279 253 256 258 256 251 248 251 252 266 275 276 270 306 300 305 299 285 282 326 248 217 188 166 162 158 164 169 174 175 163 160 160 160 163 164 161 159 159 154 157
167 200 243 273 316 308 269 245 226 201 227 250 280 286 300 305 302 18 337 307 279 255 257 216 174 170 162 162 164 165 164 166 162 160 158 159 161 159 155 154 152 151 152 150
174 191 186 273 288 219 42 129 164 204 234 251 288 313 314 307 55 21 4 345 24 303 200 170 171 175 179 176 176 168 161 159 157 155 155 154 152 149 148 148 147 147 148 145
220 129 282 274 300 285 133 137 355 237 329 250 299 319 326 317 10 29 22 50 77 102 115 139 163 166 164 163 161 156 151 148 149 148 143 141 143 142 141 141 141 139 137 110
209 151 247 7 327 283 94 133 103 106 264 221 274 321 334 344 6 38 35 43 97 124 141 147 140 140 146 133 134 134 141 144 140 137 135 138 138 141 143 142 133 123 116 182
156 175 223 215 260 282 266 133 123 24 276 352 15 333 12 59 66 94 74 63 106 126 129 136 146 148 149 138 139 135 136 138 138 137 137 139 143 143 132 128 126 147 142 351
168 169 187 168 234 257 312 130 88 224 256 280 303 323 86 104 105 105 102 93 93 95 112 133 135 141 134 137 140 143 142 147 146 138 138 138 137 138 134 141 138 111 11 335
176 199 175 199 214 253 204 217 313 281 304 300 269 226 142 128 122 131 133 129 128 129 128 127 127 129 129 139 143 144 145 144 136 135 142 149 136 139 138 123 94 15 346 343
252 194 234 171 259 243 360 34 9 332 303 287 260 209 183 151 141 135 138 141 139 142 142 142 142 141 143 145 143 138 139 145 145 140 137 137 133 124 110 78 17 350 349 339
223 30 213 249 272 320 64 12 336 327 328 317 300 184 190 164 154 154 141 135 133 132 132 142 139 136 134 139 139 137 139 141 143 140 131 126 122 104 66 22 355 343 342 332
208 199 202 257 101 62 139 336 345 279 42 44 111 144 177 183 161 158 147 147 143 147 156 144 142 137 134 140 140 138 138 143 139 131 122 112 91 50 8 345 339 337 334 331